This demonstration page uses our WeatherBlox Daily Observations layout. Learn more.

Left ArrowRight Arrow

34.74481, -87.66753

Hourly Observations for December 11, 2019

Temp ( °F °C ) Dew Point ( °F °C ) Humidity (%) Winds ( mph kmh ) Pressure ( in mb ) Visibility ( mi km ) Precip ( " mm )
12:53 am 00:53 Clear 33 0.6 30 -1.1 89 89 N 6 9 30.45 1031 10 16 0.00 0.00
1:53 am 01:53 Clear 33 0.6 30 -1.1 89 89 N 6 9 30.46 1032 10 16 0.00 0.00
2:53 am 02:53 Clear 33 0.6 29 -1.7 85 85 N 5 7 30.46 1031 10 16 0.00 0.00
3:53 am 03:53 Clear 32 0 27 -2.8 82 82 ENE 5 7 30.46 1031 10 16 0.00 0.00
4:53 am 04:53 Clear 32 0 27 -2.8 82 82 ENE 5 7 30.46 1031 10 16 0.00 0.00
5:53 am 05:53 Clear 32 0 26 -3.3 79 79 Calm 30.49 1032 10 16 0.00 0.00
6:53 am 06:53 Sunny 30 -1.1 25 -3.9 82 82 Calm 30.52 1034 10 16 0.00 0.00
7:53 am 07:53 Sunny 33 0.6 27 -2.8 78 78 Calm 30.55 1035 10 16 0.00 0.00
8:53 am 08:53 Sunny 35 1.7 27 -2.8 72 72 ENE 6 9 30.57 1035 10 16 0.00 0.00
9:53 am 09:53 Sunny 38 3.3 28 -2.2 68 68 E 3 6 30.58 1036 10 16 0.00 0.00
10:53 am 10:53 Sunny 43 6.1 28 -2.2 56 56 N 6 9 30.57 1035 10 16 0.00 0.00
11:53 am 11:53 Sunny 45 7.2 27 -2.8 49 49 NE 6 9 30.53 1034 10 16 0.00 0.00
12:53 pm 12:53 Sunny 47 8.3 28 -2.2 48 48 VRB 6 9 30.52 1033 10 16 0.00 0.00
1:53 pm 13:53 Sunny 49 9.4 29 -1.7 46 46 NNE 5 7 30.50 1033 10 16 0.00 0.00
2:53 pm 14:53 Sunny 50 10 26 -3.3 39 39 E 5 7 30.50 1033 10 16 0.00 0.00
3:53 pm 15:53 Sunny 49 9.4 27 -2.8 43 43 Calm 30.50 1033 10 16 0.00 0.00
4:53 pm 16:53 Clear 46 7.8 28 -2.2 50 50 S 5 7 30.50 1033 10 16 0.00 0.00
5:53 pm 17:53 Clear 41 5 31 -0.6 67 67 Calm 30.51 1033 10 16 0.00 0.00
6:53 pm 18:53 Clear 39 3.9 32 0 76 76 Calm 30.52 1034 10 16 0.00 0.00
7:53 pm 19:53 Clear 37 2.8 33 0.6 86 86 Calm 30.52 1034 10 16 0.00 0.00
8:53 pm 20:53 Clear 34 1.1 31 -0.6 89 89 Calm 30.52 1033 10 16 0.00 0.00
9:53 pm 21:53 Clear 33 0.6 31 -0.6 92 92 Calm 30.52 1033 10 16 0.00 0.00
10:53 pm 22:53 Clear 33 0.6 31 -0.6 92 92 Calm 30.52 1033 10 16 0.00 0.00
11:53 pm 23:53 Clear 32 0 30 -1.1 92 92 Calm 30.50 1033 10 16 0.00 0.00

Powered by AerisWeather